Wind_Speed
34 35 38 39 39 39 40 41 44 44 44 43 42 41 42 44 43 42 42 42 42 42 41 40 39 39 39 39 39 39 39 39 39 39 39 39 39 38 38 38 37 37 37
32 32 34 34 36 37 37 38 40 40 40 39 37 37 40 42 42 42 43 42 42 42 42 42 42 41 41 42 41 41 41 41 41 41 41 41 40 40 39 38 38 38 38
26 29 30 31 33 34 35 35 39 40 38 38 37 35 37 39 42 42 42 42 43 44 45 45 45 45 45 45 44 44 43 43 42 42 42 42 42 41 40 40 40 39 38
22 24 25 27 31 33 33 32 33 36 37 38 38 36 37 37 38 41 42 43 45 46 47 47 47 47 47 47 46 47 46 46 45 44 44 44 42 41 41 41 41 40 40
19 21 23 25 27 29 30 30 31 33 34 35 36 37 37 37 37 38 40 43 46 48 49 49 49 49 49 49 48 48 48 48 47 47 46 46 44 44 43 42 41 42 41
16 19 20 21 23 25 27 28 30 31 32 33 35 35 35 38 38 37 39 42 45 46 48 49 50 49 48 49 49 49 49 48 48 47 47 46 45 44 43 43 42 41 41
14 16 17 19 21 22 23 25 27 29 31 32 35 36 35 37 39 39 40 42 42 43 46 47 48 48 48 48 49 48 48 48 47 46 45 45 45 44 44 44 42 41 42
12 14 15 17 18 20 21 23 25 27 30 31 33 34 35 35 37 39 40 42 43 43 44 46 47 48 48 48 48 49 49 49 48 46 46 45 45 45 44 44 44 43 43
12 13 15 16 18 19 21 23 25 27 29 31 33 34 33 33 35 36 38 40 41 42 43 45 46 46 47 48 49 49 49 49 48 49 48 46 46 46 45 45 45 44 43
13 15 16 18 19 20 22 23 25 28 30 32 33 34 35 36 36 36 39 40 42 42 43 46 47 47 47 47 48 48 48 48 48 48 48 48 46 45 46 47 46 44 44
13 14 16 18 20 22 23 25 26 28 29 31 33 34 35 37 38 38 39 40 41 42 44 45 46 47 48 48 48 47 46 47 48 49 48 47 46 45 45 44 44 43 42
13 15 17 19 22 25 26 27 29 30 31 32 32 33 35 36 38 40 42 42 42 42 43 44 45 46 47 48 47 47 47 46 46 46 47 46 46 45 44 44 43 43 43
14 16 18 21 22 25 27 28 29 30 30 31 33 34 35 37 39 40 42 42 43 42 42 42 44 46 46 46 46 46 46 46 46 47 47 47 47 45 45 45 44 43 42
14 17 18 20 22 23 26 28 29 30 30 30 30 31 34 37 38 39 41 41 43 43 44 44 44 44 44 44 45 46 45 45 45 46 46 47 46 45 44 44 42 40 39
15 17 17 18 20 22 24 25 26 28 29 29 30 31 33 36 38 39 39 41 43 43 44 44 44 43 43 43 43 43 44 44 44 44 44 45 46 45 44 42 40 39 39
16 17 18 19 21 23 23 24 25 27 28 29 30 32 34 35 37 37 38 39 41 42 43 43 43 42 42 42 41 42 42 43 43 42 42 42 42 42 41 39 37 36 37
16 17 18 20 21 22 23 24 25 27 28 30 31 33 34 35 36 37 37 38 39 40 41 41 40 41 40 39 39 39 40 41 40 39 39 39 39 39 38 37 36 36 35
17 18 19 20 20 21 23 24 24 26 27 29 31 32 33 35 35 36 37 38 39 39 38 37 37 37 36 36 36 37 37 38 37 37 37 37 37 36 36 36 36 35 35
17 18 19 20 20 21 22 24 25 26 27 29 30 31 32 34 34 35 36 36 37 38 38 36 35 35 34 34 35 35 35 36 37 36 36 36 36 35 35 34 35 35 35
18 18 19 20 21 21 22 24 26 26 28 29 30 31 31 32 33 34 35 35 36 37 37 37 36 35 35 34 34 33 33 34 34 34 35 34 34 34 34 34 34 34 34
19 20 21 22 22 23 24 25 26 27 28 29 30 31 31 32 32 33 33 34 34 35 34 35 35 35 34 35 34 33 33 34 33 33 33 33 33 34 34 34 34 34 34
21 22 23 24 24 25 26 27 27 28 29 29 29 30 31 31 32 33 32 33 32 31 31 31 32 33 33 33 34 34 34 34 33 34 33 33 33 33 34 34 34 34 34
22 24 25 25 26 27 27 28 28 28 29 29 29 30 30 31 32 32 32 32 31 30 31 31 31 31 31 31 32 33 33 33 33 33 33 33 33 34 34 34 34 34 33
25 26 27 27 27 28 29 29 29 29 30 30 30 30 30 31 31 31 31 30 30 30 30 30 31 31 31 30 31 32 32 31 31 32 33 33 33 33 33 33 32 32 32
27 28 29 29 29 30 31 31 30 30 31 31 31 30 30 30 30 30 30 30 30 30 30 29 29 29 29 30 31 30 31 30 31 31 32 32 32 32 32 31 31 31 31
28 29 30 30 31 31 32 31 31 31 31 31 31 30 30 30 29 29 29 29 29 29 28 28 28 29 29 29 30 30 31 31 30 31 31 31 31 31 31 31 31 31 31
Wind_Direction
216 216 217 216 217 218 218 222 224 228 230 230 232 233 235 237 239 241 242 243 246 248 251 254 256 257 258 260 262 264 265 266 267 268 269 272 273 274 275 278 280 282 284
218 218 219 220 221 219 218 222 224 226 226 229 232 235 237 239 240 241 242 244 247 249 251 254 257 258 260 262 263 265 265 266 268 268 270 272 272 272 275 277 279 280 282
219 219 218 221 221 222 221 223 224 225 227 229 233 236 237 240 243 244 244 246 249 251 254 256 257 258 259 261 263 264 266 267 268 268 269 271 271 272 273 275 277 279 281
224 222 221 223 225 226 227 228 228 229 231 233 235 238 241 244 245 246 247 249 250 251 253 256 258 258 259 261 262 263 264 266 267 268 268 270 270 272 273 274 276 278 280
226 226 227 228 228 229 230 235 237 238 236 235 237 242 247 249 250 250 251 253 253 253 255 256 257 258 260 260 261 263 264 265 266 267 267 268 269 272 273 274 276 277 279
229 229 228 231 232 232 235 240 240 243 241 240 241 246 252 253 254 255 258 257 256 256 255 256 257 259 261 262 264 264 264 264 265 266 266 267 269 271 273 273 275 278 280
237 236 234 237 241 242 246 247 245 246 246 246 246 250 254 256 257 258 260 260 259 261 261 260 259 261 263 264 263 264 263 263 264 265 266 267 268 270 272 274 276 278 281
241 242 241 243 249 254 256 255 256 255 254 253 255 257 258 260 262 262 263 263 262 262 264 263 261 262 263 264 265 265 265 263 263 264 266 268 269 271 273 275 278 279 280
247 252 254 255 259 264 265 263 264 264 263 261 261 261 263 264 265 264 264 264 265 265 266 265 263 263 265 265 265 266 265 264 264 265 266 267 269 271 273 275 277 278 279
257 260 260 262 266 271 271 270 268 267 267 266 265 266 265 265 267 265 264 266 267 268 268 266 265 265 266 267 266 265 264 263 264 265 265 267 269 270 272 274 274 275 277
263 265 267 269 272 273 274 272 270 268 268 268 269 269 270 270 269 269 269 269 269 270 269 269 268 267 268 268 267 264 263 264 264 263 264 266 267 270 272 271 271 273 276
273 273 274 274 273 272 274 274 273 271 271 273 273 271 270 270 271 270 269 270 269 270 270 270 269 268 268 268 266 266 265 264 263 263 263 265 268 270 270 270 271 274 277
279 281 282 280 279 277 276 276 275 274 275 275 275 274 273 273 274 272 271 271 269 269 271 272 271 269 269 267 265 265 264 263 263 263 264 265 267 268 269 271 272 274 275
289 288 288 286 285 284 283 281 279 278 277 277 277 277 277 276 276 275 273 270 270 271 273 272 272 272 269 266 265 265 263 263 263 264 264 266 268 268 269 270 270 271 273
300 297 297 295 295 294 290 286 282 281 281 279 279 280 279 279 278 278 277 275 273 273 274 272 271 271 269 266 265 263 263 263 265 266 265 266 267 267 268 267 268 269 271
311 308 304 302 300 298 295 289 285 285 285 284 282 282 282 282 280 278 278 276 275 275 274 272 271 271 270 266 265 265 263 264 265 264 263 264 264 265 265 266 267 269 271
319 315 311 307 303 300 298 295 291 288 287 287 287 286 285 284 282 280 278 276 275 276 275 272 272 271 269 267 267 267 266 264 263 264 263 263 262 261 262 265 266 269 271
328 323 319 314 307 303 302 301 297 293 292 291 290 288 286 285 284 283 280 278 277 276 275 274 272 270 268 266 266 266 264 262 261 261 259 259 261 263 263 265 267 269 270
330 327 325 323 317 311 307 304 302 299 296 294 292 290 289 287 285 285 283 280 278 277 275 274 273 269 266 265 264 263 262 261 261 261 261 262 264 264 265 266 267 268 269
331 329 325 325 323 319 313 308 307 303 300 297 294 293 292 290 289 288 286 283 281 278 275 273 272 269 266 263 262 260 260 260 262 263 264 263 263 263 264 265 265 266 268
328 326 323 322 321 318 316 313 311 306 302 299 295 294 293 292 291 290 289 288 285 281 277 274 271 269 266 262 260 260 261 261 263 264 263 262 262 262 264 264 264 266 268
325 323 320 319 318 317 316 314 312 309 305 302 299 297 296 295 294 293 292 291 287 282 278 275 272 270 266 261 261 261 259 259 260 262 262 261 261 261 263 264 266 267 268
322 321 320 318 317 316 317 316 313 311 308 305 302 301 299 298 297 296 294 292 288 284 279 275 272 269 265 263 262 261 260 260 260 261 260 259 260 261 263 265 266 266 267
319 317 317 316 316 316 317 316 313 311 310 308 306 303 301 300 299 299 297 294 291 287 282 275 270 266 265 264 261 260 260 260 259 259 259 260 261 262 264 265 266 266 266
316 315 315 314 313 313 315 315 314 312 310 307 306 305 303 303 301 300 299 296 294 290 282 276 271 268 266 264 263 261 259 259 258 260 260 261 262 262 263 264 265 265 265
317 316 315 313 312 312 313 312 313 312 311 308 306 305 304 303 303 302 301 299 297 293 286 278 273 271 269 265 263 261 260 259 261 261 261 263 263 263 263 264 264 264 265
Height
5684 5690 5697 5703 5710 5716 5723 5729 5734 5739 5744 5750 5754 5757 5761 5765 5769 5773 5777 5780 5783 5786 5788 5790 5792 5794 5795 5796 5797 5798 5799 5799 5799 5800 5800 5800 5799 5799 5799 5798 5797 5796 5795
5681 5687 5693 5698 5705 5711 5717 5723 5727 5732 5738 5743 5747 5750 5754 5758 5762 5765 5768 5771 5774 5777 5780 5782 5784 5785 5787 5787 5788 5789 5790 5790 5791 5791 5790 5791 5791 5791 5790 5789 5789 5788 5787
5679 5684 5689 5695 5700 5706 5711 5715 5721 5726 5731 5736 5740 5744 5747 5751 5754 5757 5760 5763 5766 5768 5771 5772 5774 5775 5777 5778 5779 5779 5780 5781 5781 5781 5781 5781 5781 5781 5781 5780 5779 5779 5778
5677 5682 5687 5691 5696 5701 5706 5711 5715 5720 5724 5729 5732 5737 5741 5744 5746 5748 5751 5754 5756 5758 5761 5762 5764 5765 5766 5767 5768 5769 5770 5770 5771 5771 5771 5771 5771 5771 5771 5771 5770 5769 5768
5675 5679 5683 5687 5692 5697 5702 5706 5709 5713 5717 5721 5725 5729 5733 5736 5739 5740 5742 5744 5746 5748 5750 5751 5753 5754 5755 5756 5757 5758 5759 5759 5760 5760 5760 5760 5760 5759 5760 5760 5760 5759 5758
5673 5677 5681 5685 5689 5693 5697 5700 5704 5707 5711 5715 5718 5721 5725 5728 5730 5731 5732 5734 5735 5737 5739 5740 5741 5743 5743 5744 5745 5746 5747 5747 5747 5748 5748 5748 5748 5749 5748 5749 5749 5748 5747
5672 5675 5679 5682 5686 5689 5692 5695 5699 5702 5705 5708 5711 5714 5717 5719 5721 5722 5723 5724 5725 5726 5727 5728 5729 5730 5731 5731 5732 5732 5733 5734 5734 5735 5736 5736 5737 5737 5737 5737 5737 5737 5737
5670 5673 5676 5679 5682 5685 5688 5690 5693 5696 5699 5701 5704 5707 5708 5710 5711 5712 5713 5713 5714 5715 5715 5716 5717 5718 5719 5719 5719 5719 5720 5720 5722 5723 5723 5724 5725 5725 5725 5726 5726 5726 5726
5668 5671 5673 5676 5678 5681 5683 5685 5687 5689 5692 5694 5696 5698 5699 5700 5701 5702 5702 5702 5703 5703 5704 5704 5705 5705 5706 5706 5706 5706 5706 5707 5708 5710 5711 5712 5713 5712 5713 5713 5714 5714 5714
5666 5668 5670 5672 5674 5675 5677 5678 5680 5682 5683 5685 5687 5688 5689 5690 5691 5691 5691 5692 5692 5692 5692 5692 5693 5693 5693 5693 5693 5692 5693 5693 5695 5697 5699 5700 5700 5700 5701 5701 5702 5702 5702
5663 5665 5666 5667 5668 5669 5670 5671 5672 5674 5675 5676 5676 5677 5678 5679 5680 5679 5680 5680 5680 5679 5679 5679 5679 5679 5679 5679 5679 5679 5680 5681 5682 5684 5686 5687 5688 5688 5689 5689 5689 5689 5689
5659 5660 5661 5661 5662 5662 5662 5663 5663 5664 5665 5666 5666 5667 5667 5668 5668 5668 5668 5668 5667 5667 5666 5666 5666 5665 5665 5665 5665 5666 5667 5668 5669 5671 5673 5675 5675 5676 5676 5677 5677 5677 5677
5655 5655 5655 5655 5654 5654 5654 5654 5654 5655 5655 5655 5655 5656 5656 5656 5656 5656 5655 5655 5654 5654 5654 5653 5653 5652 5651 5651 5652 5653 5654 5655 5656 5658 5660 5661 5662 5663 5664 5664 5665 5665 5666
5650 5650 5649 5648 5647 5646 5645 5645 5644 5645 5645 5645 5645 5645 5645 5645 5644 5643 5643 5642 5642 5641 5641 5640 5640 5639 5639 5639 5640 5640 5641 5642 5643 5645 5647 5648 5649 5650 5651 5652 5653 5653 5654
5646 5644 5643 5642 5640 5639 5637 5635 5635 5635 5635 5635 5635 5635 5634 5633 5632 5631 5630 5630 5629 5629 5628 5628 5627 5627 5627 5627 5628 5628 5629 5630 5631 5632 5634 5635 5636 5638 5639 5640 5641 5642 5642
5641 5639 5637 5636 5634 5632 5629 5628 5627 5626 5626 5626 5626 5625 5623 5622 5620 5620 5619 5618 5617 5617 5616 5615 5615 5615 5615 5615 5616 5616 5617 5618 5619 5620 5621 5622 5624 5626 5627 5628 5629 5630 5631
5637 5635 5632 5630 5628 5625 5623 5621 5619 5618 5617 5617 5616 5614 5613 5611 5610 5609 5607 5607 5606 5605 5604 5603 5602 5603 5603 5603 5604 5604 5605 5606 5607 5608 5610 5611 5613 5614 5616 5617 5618 5620 5620
5633 5630 5627 5624 5621 5619 5616 5614 5613 5611 5610 5608 5606 5605 5603 5601 5599 5598 5597 5595 5594 5593 5592 5591 5590 5590 5591 5592 5593 5593 5594 5594 5595 5597 5599 5601 5602 5604 5605 5607 5608 5609 5610
5630 5626 5623 5619 5616 5613 5611 5609 5607 5605 5603 5601 5598 5595 5593 5591 5589 5587 5585 5584 5582 5581 5580 5579 5579 5579 5579 5580 5581 5582 5583 5584 5586 5587 5588 5590 5591 5593 5595 5596 5598 5599 5599
5626 5623 5620 5616 5612 5609 5606 5604 5601 5598 5596 5593 5590 5587 5584 5582 5579 5577 5575 5573 5571 5569 5568 5568 5567 5568 5568 5569 5570 5571 5573 5574 5576 5577 5578 5580 5581 5583 5585 5586 5587 5588 5589
5623 5620 5616 5612 5609 5605 5601 5598 5595 5592 5589 5585 5582 5579 5576 5573 5570 5568 5565 5563 5560 5559 5558 5557 5557 5557 5557 5558 5559 5561 5562 5564 5566 5567 5568 5570 5571 5573 5575 5576 5577 5578 5579
5619 5616 5612 5608 5604 5600 5596 5593 5589 5585 5581 5578 5574 5571 5568 5564 5561 5559 5556 5553 5550 5548 5548 5547 5547 5546 5547 5548 5549 5551 5552 5554 5556 5558 5559 5560 5562 5563 5565 5566 5567 5568 5569
5615 5611 5607 5603 5599 5595 5591 5586 5582 5578 5574 5570 5567 5563 5560 5556 5553 5550 5547 5544 5541 5539 5538 5537 5537 5537 5537 5538 5539 5541 5543 5544 5546 5548 5549 5551 5552 5554 5555 5556 5557 5558 5559
5610 5606 5602 5598 5593 5589 5584 5580 5575 5571 5567 5563 5559 5555 5552 5548 5545 5542 5539 5536 5533 5530 5529 5528 5528 5528 5528 5529 5530 5532 5533 5535 5537 5538 5540 5541 5542 5544 5545 5546 5547 5548 5549
5604 5600 5596 5592 5588 5583 5578 5573 5568 5564 5559 5555 5551 5547 5544 5540 5537 5534 5530 5527 5524 5521 5520 5519 5518 5519 5520 5520 5521 5522 5524 5526 5527 5529 5530 5532 5533 5534 5536 5537 5538 5538 5539
5599 5594 5590 5585 5581 5576 5571 5566 5561 5556 5551 5547 5543 5539 5536 5532 5529 5526 5522 5518 5516 5513 5511 5510 5510 5510 5510 5511 5512 5513 5515 5516 5518 5519 5521 5522 5524 5525 5526 5527 5528 5529 5530